Skip Page Navigation
NASA JPL Caltech
NASA Logo - Jet Propulsion Laboratory + View the NASA Portal
+ Near-Earth Object (NEO) Program
Search JPL
JPL Home Earth Solar System Stars & Galaxies Technology
JPL Solar System Dynamics
BODIES ORBITS EPHEMERIDES TOOLS PHYSICAL DATA DISCOVERY FAQ SITE MAP
JPL Small-Body Database Browser
Search: [ help ]  
3704 Gaoshiqi (1981 YX1)
Classification: Main-belt Asteroid          SPK-ID: 2003704
Ephemeris | Orbit Diagram | Orbital Elements | Physical Parameters | Discovery Circumstances | Close-Approach Data ]

[ show orbit diagram ]
Orbital Elements at Epoch 2457000.5 (2014-Dec-09.0) TDB
Reference: JPL 10 (heliocentric ecliptic J2000)
 Element Value Uncertainty (1-sigma)   Units 
e .05124095101153919 4.9414e-08  
a 2.410004539438222 1.3378e-08 AU
q 2.286513614895281 1.1658e-07 AU
i 5.890269000187434 5.2356e-06 deg
node 233.7517226016734 5.3831e-05 deg
peri 37.23269594086408 7.8452e-05 deg
M 93.73298869302459 5.8244e-05 deg
tp 2456644.692431544319
(2013-Dec-18.19243154)
0.00022079 JED
period 1366.549028576716
3.74
1.1378e-05
3.115e-08
d
yr
n .2634373099477786 2.1934e-09 deg/d
Q 2.533495463981164 1.4063e-08 AU
  Orbit Determination Parameters
   # obs. used (total)      1267  
   data-arc span      21991 days (60.21 yr)  
   first obs. used      1954-07-28  
   last obs. used      2014-10-12  
   planetary ephem.      DE431  
   SB-pert. ephem.      SB431-BIG16  
   condition code      0  
   fit RMS      .51741  
   data source      ORB  
   producer      Otto Matic  
   solution date      2014-Nov-10 12:53:58  

Additional Information
 Earth MOID = 1.2752 AU 
 T_jup = 3.511 
[ show covariance matrix ]

Ephemeris | Orbit Diagram | Orbital Elements | Physical Parameters | Discovery Circumstances | Close-Approach Data ]

Physical Parameter Table
Parameter Symbol Value Units Sigma Reference Notes
absolute magnitude H 12.5 mag n/a PDS3 (MPC 17269)  
rotation period rot_per 9.7787 h n/a Asteroid Lightcurve DataBase (Rev. 2014-Mar-01) Result based on less than full coverage, so that the period may be wrong by 30 percent or so.
Published Reference List:
[Pravec, P.; Wolf, M.; Sarounova, L. (2010) http://www.asu.cas.cz/~ppravec/neo.htm]
[Oey, J.; Inasaridze, R.Y.; Kvaratskhelia, O.I.; Ayvazian, V.; et al. (2013) Minor Planet Bul. 40, 169-172.]
SMASSII spectral type spec_B Xk   n/a EAR-A-5-DDR-TAXONOMY-V4.0 based on a high-resolution spectrum by Xu et al. (1995) or Bus and Binzel (2002)

3704 Gaoshiqi           Discovered 1981 Dec. 20 at the Purple Mountain Observatory.
Gao Shi-Qi (1905-1988) is considered the founder of science popularization in China. His contraction of encephalitis during a scientific experiment at the University of Chicago in 1928 caused paralysis of his whole body.
NOTE: some special characters may not display properly (any characters within {} are an attempt to place the proper accent above a character)
Reference: 19990928/MPCPages.arcLast Updated: 2010-06-11

[ show close-approach data ]
Alternate Designations
 1981 YX1 = 1951 WH1 = 1957 HR = 1958 UB = 1972 HD = 1973 TR = 1977 TK7 = 1977 VH2 = 1979 FL1 = 1980 OJ 
Ephemeris | Orbit Diagram | Orbital Elements | Physical Parameters | Discovery Circumstances | Close-Approach Data ]
ABOUT SSD CREDITS/AWARDS PRIVACY/COPYRIGHT GLOSSARY LINKS
FirstGov 2014-Nov-28 22:59 UT
(server date/time)  
NASA Home Page
Site Manager:   Donald K. Yeomans
Webmaster  Alan B. Chamberlin